Location: Holyhead Bay
(53.3667°N, 4.6667°W)
Time: 18:57:43
(UTC+00:00)

USA 215 - Pass Details

Date: 24 November 2020
Orbit: 1098 x 1110 km, 123.0° (Epoch: 14 January)

Event Time Altitude Azimuth Distance (km) Brightness Sun altitude
Exits shadow 18:35:12 36° 82° (E) 1,699 3.7 -20.9°
Maximum altitude 18:37:54 59° 144° (SE) 1,270 3.4 -21.3°
Drops below altitude 10° 18:44:23 10° 223° (SW) 2,970 6.2 -22.2°
Sets 18:46:55 0° 228° (SW) 3,926 7.0 -22.6°
